Index of /20260502/WXO-DD/model_rdps/10km/12/084
Name Last modified Size Description
Parent Directory -
20260502T12Z_MSC_RDPS_AbsoluteVorticity_IsbL-0250_RLatLon0.09_PT084H.grib2 2026-05-02 15:05 733K
20260502T12Z_MSC_RDPS_AbsoluteVorticity_IsbL-0500_RLatLon0.09_PT084H.grib2 2026-05-02 15:05 693K
20260502T12Z_MSC_RDPS_AbsoluteVorticity_IsbL-0700_RLatLon0.09_PT084H.grib2 2026-05-02 15:05 614K
20260502T12Z_MSC_RDPS_AbsoluteVorticity_IsbL-0850_RLatLon0.09_PT084H.grib2 2026-05-02 15:05 783K
20260502T12Z_MSC_RDPS_AirTemp_AGL-120m_RLatLon0.09_PT084H.grib2 2026-05-02 15:05 387K
20260502T12Z_MSC_RDPS_AirTemp_AGL-2m_RLatLon0.09_PT084H.grib2 2026-05-02 15:05 619K
20260502T12Z_MSC_RDPS_AirTemp_AGL-40m_RLatLon0.09_PT084H.grib2 2026-05-02 15:05 396K
20260502T12Z_MSC_RDPS_AirTemp_AGL-80m_RLatLon0.09_PT084H.grib2 2026-05-02 15:05 391K
20260502T12Z_MSC_RDPS_AirTemp_IsbL-0001_RLatLon0.09_PT084H.grib2 2026-05-02 15:05 309K
20260502T12Z_MSC_RDPS_AirTemp_IsbL-0005_RLatLon0.09_PT084H.grib2 2026-05-02 15:05 291K
20260502T12Z_MSC_RDPS_AirTemp_IsbL-0010_RLatLon0.09_PT084H.grib2 2026-05-02 15:05 301K
20260502T12Z_MSC_RDPS_AirTemp_IsbL-0020_RLatLon0.09_PT084H.grib2 2026-05-02 15:05 318K
20260502T12Z_MSC_RDPS_AirTemp_IsbL-0030_RLatLon0.09_PT084H.grib2 2026-05-02 15:05 336K
20260502T12Z_MSC_RDPS_AirTemp_IsbL-0050_RLatLon0.09_PT084H.grib2 2026-05-02 15:05 315K
20260502T12Z_MSC_RDPS_AirTemp_IsbL-0100_RLatLon0.09_PT084H.grib2 2026-05-02 15:05 428K
20260502T12Z_MSC_RDPS_AirTemp_IsbL-0150_RLatLon0.09_PT084H.grib2 2026-05-02 15:05 420K
20260502T12Z_MSC_RDPS_AirTemp_IsbL-0175_RLatLon0.09_PT084H.grib2 2026-05-02 15:05 412K
20260502T12Z_MSC_RDPS_AirTemp_IsbL-0200_RLatLon0.09_PT084H.grib2 2026-05-02 15:05 414K
20260502T12Z_MSC_RDPS_AirTemp_IsbL-0225_RLatLon0.09_PT084H.grib2 2026-05-02 15:05 411K
20260502T12Z_MSC_RDPS_AirTemp_IsbL-0250_RLatLon0.09_PT084H.grib2 2026-05-02 15:05 416K
20260502T12Z_MSC_RDPS_AirTemp_IsbL-0275_RLatLon0.09_PT084H.grib2 2026-05-02 15:05 399K
20260502T12Z_MSC_RDPS_AirTemp_IsbL-0300_RLatLon0.09_PT084H.grib2 2026-05-02 15:05 408K
20260502T12Z_MSC_RDPS_AirTemp_IsbL-0350_RLatLon0.09_PT084H.grib2 2026-05-02 15:05 426K
20260502T12Z_MSC_RDPS_AirTemp_IsbL-0400_RLatLon0.09_PT084H.grib2 2026-05-02 15:05 429K
20260502T12Z_MSC_RDPS_AirTemp_IsbL-0450_RLatLon0.09_PT084H.grib2 2026-05-02 15:05 437K
20260502T12Z_MSC_RDPS_AirTemp_IsbL-0500_RLatLon0.09_PT084H.grib2 2026-05-02 15:05 445K
20260502T12Z_MSC_RDPS_AirTemp_IsbL-0550_RLatLon0.09_PT084H.grib2 2026-05-02 15:05 426K
20260502T12Z_MSC_RDPS_AirTemp_IsbL-0600_RLatLon0.09_PT084H.grib2 2026-05-02 15:05 444K
20260502T12Z_MSC_RDPS_AirTemp_IsbL-0650_RLatLon0.09_PT084H.grib2 2026-05-02 15:05 457K
20260502T12Z_MSC_RDPS_AirTemp_IsbL-0700_RLatLon0.09_PT084H.grib2 2026-05-02 15:05 378K
20260502T12Z_MSC_RDPS_AirTemp_IsbL-0750_RLatLon0.09_PT084H.grib2 2026-05-02 15:05 409K
20260502T12Z_MSC_RDPS_AirTemp_IsbL-0800_RLatLon0.09_PT084H.grib2 2026-05-02 15:05 449K
20260502T12Z_MSC_RDPS_AirTemp_IsbL-0850_RLatLon0.09_PT084H.grib2 2026-05-02 15:05 501K
20260502T12Z_MSC_RDPS_AirTemp_IsbL-0875_RLatLon0.09_PT084H.grib2 2026-05-02 15:05 522K
20260502T12Z_MSC_RDPS_AirTemp_IsbL-0900_RLatLon0.09_PT084H.grib2 2026-05-02 15:05 529K
20260502T12Z_MSC_RDPS_AirTemp_IsbL-0925_RLatLon0.09_PT084H.grib2 2026-05-02 15:05 524K
20260502T12Z_MSC_RDPS_AirTemp_IsbL-0950_RLatLon0.09_PT084H.grib2 2026-05-02 15:05 517K
20260502T12Z_MSC_RDPS_AirTemp_IsbL-0970_RLatLon0.09_PT084H.grib2 2026-05-02 15:05 508K
20260502T12Z_MSC_RDPS_AirTemp_IsbL-0985_RLatLon0.09_PT084H.grib2 2026-05-02 15:05 497K
20260502T12Z_MSC_RDPS_AirTemp_IsbL-1000_RLatLon0.09_PT084H.grib2 2026-05-02 15:05 484K
20260502T12Z_MSC_RDPS_AirTemp_IsbL-1015_RLatLon0.09_PT084H.grib2 2026-05-02 15:05 488K
20260502T12Z_MSC_RDPS_Albedo_Sfc_RLatLon0.09_PT084H.grib2 2026-05-02 15:05 154K
20260502T12Z_MSC_RDPS_CAPE_Sfc_RLatLon0.09_PT084H.grib2 2026-05-02 15:05 1.9M
20260502T12Z_MSC_RDPS_CIN_Sfc_RLatLon0.09_PT084H.grib2 2026-05-02 15:05 1.3M
20260502T12Z_MSC_RDPS_CloudWater_EAtm_RLatLon0.09_PT084H.grib2 2026-05-02 15:05 222K
20260502T12Z_MSC_RDPS_ConvectivePrecip-Accum_Sfc_RLatLon0.09_PT084H.grib2 2026-05-02 15:05 1.3M
20260502T12Z_MSC_RDPS_DewPointDepression_AGL-2m_RLatLon0.09_PT084H.grib2 2026-05-02 15:05 412K
20260502T12Z_MSC_RDPS_DewPointDepression_IsbL-0001_RLatLon0.09_PT084H.grib2 2026-05-02 15:05 193
20260502T12Z_MSC_RDPS_DewPointDepression_IsbL-0005_RLatLon0.09_PT084H.grib2 2026-05-02 15:05 193
20260502T12Z_MSC_RDPS_DewPointDepression_IsbL-0010_RLatLon0.09_PT084H.grib2 2026-05-02 15:05 193
20260502T12Z_MSC_RDPS_DewPointDepression_IsbL-0020_RLatLon0.09_PT084H.grib2 2026-05-02 15:05 193
20260502T12Z_MSC_RDPS_DewPointDepression_IsbL-0030_RLatLon0.09_PT084H.grib2 2026-05-02 15:05 193
20260502T12Z_MSC_RDPS_DewPointDepression_IsbL-0050_RLatLon0.09_PT084H.grib2 2026-05-02 15:05 77K
20260502T12Z_MSC_RDPS_DewPointDepression_IsbL-0100_RLatLon0.09_PT084H.grib2 2026-05-02 15:05 112K
20260502T12Z_MSC_RDPS_DewPointDepression_IsbL-0150_RLatLon0.09_PT084H.grib2 2026-05-02 15:05 145K
20260502T12Z_MSC_RDPS_DewPointDepression_IsbL-0175_RLatLon0.09_PT084H.grib2 2026-05-02 15:05 189K
20260502T12Z_MSC_RDPS_DewPointDepression_IsbL-0200_RLatLon0.09_PT084H.grib2 2026-05-02 15:05 224K
20260502T12Z_MSC_RDPS_DewPointDepression_IsbL-0225_RLatLon0.09_PT084H.grib2 2026-05-02 15:05 253K
20260502T12Z_MSC_RDPS_DewPointDepression_IsbL-0250_RLatLon0.09_PT084H.grib2 2026-05-02 15:05 297K
20260502T12Z_MSC_RDPS_DewPointDepression_IsbL-0275_RLatLon0.09_PT084H.grib2 2026-05-02 15:05 310K
20260502T12Z_MSC_RDPS_DewPointDepression_IsbL-0300_RLatLon0.09_PT084H.grib2 2026-05-02 15:05 328K
20260502T12Z_MSC_RDPS_DewPointDepression_IsbL-0350_RLatLon0.09_PT084H.grib2 2026-05-02 15:05 327K
20260502T12Z_MSC_RDPS_DewPointDepression_IsbL-0400_RLatLon0.09_PT084H.grib2 2026-05-02 15:05 338K
20260502T12Z_MSC_RDPS_DewPointDepression_IsbL-0450_RLatLon0.09_PT084H.grib2 2026-05-02 15:05 346K
20260502T12Z_MSC_RDPS_DewPointDepression_IsbL-0500_RLatLon0.09_PT084H.grib2 2026-05-02 15:05 348K
20260502T12Z_MSC_RDPS_DewPointDepression_IsbL-0550_RLatLon0.09_PT084H.grib2 2026-05-02 15:05 360K
20260502T12Z_MSC_RDPS_DewPointDepression_IsbL-0600_RLatLon0.09_PT084H.grib2 2026-05-02 15:05 369K
20260502T12Z_MSC_RDPS_DewPointDepression_IsbL-0650_RLatLon0.09_PT084H.grib2 2026-05-02 15:05 375K
20260502T12Z_MSC_RDPS_DewPointDepression_IsbL-0700_RLatLon0.09_PT084H.grib2 2026-05-02 15:05 388K
20260502T12Z_MSC_RDPS_DewPointDepression_IsbL-0750_RLatLon0.09_PT084H.grib2 2026-05-02 15:05 407K
20260502T12Z_MSC_RDPS_DewPointDepression_IsbL-0800_RLatLon0.09_PT084H.grib2 2026-05-02 15:05 436K
20260502T12Z_MSC_RDPS_DewPointDepression_IsbL-0850_RLatLon0.09_PT084H.grib2 2026-05-02 15:05 473K
20260502T12Z_MSC_RDPS_DewPointDepression_IsbL-0875_RLatLon0.09_PT084H.grib2 2026-05-02 15:05 476K
20260502T12Z_MSC_RDPS_DewPointDepression_IsbL-0900_RLatLon0.09_PT084H.grib2 2026-05-02 15:05 466K
20260502T12Z_MSC_RDPS_DewPointDepression_IsbL-0925_RLatLon0.09_PT084H.grib2 2026-05-02 15:05 453K
20260502T12Z_MSC_RDPS_DewPointDepression_IsbL-0950_RLatLon0.09_PT084H.grib2 2026-05-02 15:05 442K
20260502T12Z_MSC_RDPS_DewPointDepression_IsbL-0970_RLatLon0.09_PT084H.grib2 2026-05-02 15:05 435K
20260502T12Z_MSC_RDPS_DewPointDepression_IsbL-0985_RLatLon0.09_PT084H.grib2 2026-05-02 15:05 431K
20260502T12Z_MSC_RDPS_DewPointDepression_IsbL-1000_RLatLon0.09_PT084H.grib2 2026-05-02 15:05 426K
20260502T12Z_MSC_RDPS_DewPointDepression_IsbL-1015_RLatLon0.09_PT084H.grib2 2026-05-02 15:05 417K
20260502T12Z_MSC_RDPS_DewPoint_AGL-2m_RLatLon0.09_PT084H.grib2 2026-05-02 15:05 305K
20260502T12Z_MSC_RDPS_DownwardLongwaveRadiationFlux-Accum_Sfc_RLatLon0.09_PT084H.grib2 2026-05-02 15:05 444K
20260502T12Z_MSC_RDPS_DownwardShortwaveRadiationFlux-Accum_NTAtm_RLatLon0.09_PT084H.grib2 2026-05-02 15:05 106K
20260502T12Z_MSC_RDPS_DownwardShortwaveRadiationFlux-Accum_Sfc_RLatLon0.09_PT084H.grib2 2026-05-02 15:05 520K
20260502T12Z_MSC_RDPS_FreezingRain-Accum12h_Sfc_RLatLon0.09_PT084H.grib2 2026-05-02 15:05 78K
20260502T12Z_MSC_RDPS_FreezingRain-Accum1h_Sfc_RLatLon0.09_PT084H.grib2 2026-05-02 15:05 18K
20260502T12Z_MSC_RDPS_FreezingRain-Accum24h_Sfc_RLatLon0.09_PT084H.grib2 2026-05-02 15:05 106K
20260502T12Z_MSC_RDPS_FreezingRain-Accum3h_Sfc_RLatLon0.09_PT084H.grib2 2026-05-02 15:05 21K
20260502T12Z_MSC_RDPS_FreezingRain-Accum6h_Sfc_RLatLon0.09_PT084H.grib2 2026-05-02 15:05 37K
20260502T12Z_MSC_RDPS_FreezingRain-Accum_Sfc_RLatLon0.09_PT084H.grib2 2026-05-02 15:05 223K
20260502T12Z_MSC_RDPS_GeopotentialHeight_IsbL-0001_RLatLon0.09_PT084H.grib2 2026-05-02 15:05 313K
20260502T12Z_MSC_RDPS_GeopotentialHeight_IsbL-0005_RLatLon0.09_PT084H.grib2 2026-05-02 15:05 338K
20260502T12Z_MSC_RDPS_GeopotentialHeight_IsbL-0010_RLatLon0.09_PT084H.grib2 2026-05-02 15:05 306K
20260502T12Z_MSC_RDPS_GeopotentialHeight_IsbL-0020_RLatLon0.09_PT084H.grib2 2026-05-02 15:05 306K
20260502T12Z_MSC_RDPS_GeopotentialHeight_IsbL-0030_RLatLon0.09_PT084H.grib2 2026-05-02 15:05 307K
20260502T12Z_MSC_RDPS_GeopotentialHeight_IsbL-0050_RLatLon0.09_PT084H.grib2 2026-05-02 15:05 308K
20260502T12Z_MSC_RDPS_GeopotentialHeight_IsbL-0100_RLatLon0.09_PT084H.grib2 2026-05-02 15:05 284K
20260502T12Z_MSC_RDPS_GeopotentialHeight_IsbL-0150_RLatLon0.09_PT084H.grib2 2026-05-02 15:05 229K
20260502T12Z_MSC_RDPS_GeopotentialHeight_IsbL-0175_RLatLon0.09_PT084H.grib2 2026-05-02 15:05 232K
20260502T12Z_MSC_RDPS_GeopotentialHeight_IsbL-0200_RLatLon0.09_PT084H.grib2 2026-05-02 15:05 235K
20260502T12Z_MSC_RDPS_GeopotentialHeight_IsbL-0225_RLatLon0.09_PT084H.grib2 2026-05-02 15:05 237K
20260502T12Z_MSC_RDPS_GeopotentialHeight_IsbL-0250_RLatLon0.09_PT084H.grib2 2026-05-02 15:05 237K
20260502T12Z_MSC_RDPS_GeopotentialHeight_IsbL-0275_RLatLon0.09_PT084H.grib2 2026-05-02 15:05 235K
20260502T12Z_MSC_RDPS_GeopotentialHeight_IsbL-0300_RLatLon0.09_PT084H.grib2 2026-05-02 15:05 235K
20260502T12Z_MSC_RDPS_GeopotentialHeight_IsbL-0350_RLatLon0.09_PT084H.grib2 2026-05-02 15:05 231K
20260502T12Z_MSC_RDPS_GeopotentialHeight_IsbL-0400_RLatLon0.09_PT084H.grib2 2026-05-02 15:05 227K
20260502T12Z_MSC_RDPS_GeopotentialHeight_IsbL-0450_RLatLon0.09_PT084H.grib2 2026-05-02 15:05 297K
20260502T12Z_MSC_RDPS_GeopotentialHeight_IsbL-0500_RLatLon0.09_PT084H.grib2 2026-05-02 15:05 294K
20260502T12Z_MSC_RDPS_GeopotentialHeight_IsbL-0550_RLatLon0.09_PT084H.grib2 2026-05-02 15:05 291K
20260502T12Z_MSC_RDPS_GeopotentialHeight_IsbL-0600_RLatLon0.09_PT084H.grib2 2026-05-02 15:05 286K
20260502T12Z_MSC_RDPS_GeopotentialHeight_IsbL-0650_RLatLon0.09_PT084H.grib2 2026-05-02 15:05 258K
20260502T12Z_MSC_RDPS_GeopotentialHeight_IsbL-0700_RLatLon0.09_PT084H.grib2 2026-05-02 15:05 257K
20260502T12Z_MSC_RDPS_GeopotentialHeight_IsbL-0750_RLatLon0.09_PT084H.grib2 2026-05-02 15:05 342K
20260502T12Z_MSC_RDPS_GeopotentialHeight_IsbL-0800_RLatLon0.09_PT084H.grib2 2026-05-02 15:05 349K
20260502T12Z_MSC_RDPS_GeopotentialHeight_IsbL-0850_RLatLon0.09_PT084H.grib2 2026-05-02 15:05 360K
20260502T12Z_MSC_RDPS_GeopotentialHeight_IsbL-0875_RLatLon0.09_PT084H.grib2 2026-05-02 15:05 361K
20260502T12Z_MSC_RDPS_GeopotentialHeight_IsbL-0900_RLatLon0.09_PT084H.grib2 2026-05-02 15:05 365K
20260502T12Z_MSC_RDPS_GeopotentialHeight_IsbL-0925_RLatLon0.09_PT084H.grib2 2026-05-02 15:05 366K
20260502T12Z_MSC_RDPS_GeopotentialHeight_IsbL-0950_RLatLon0.09_PT084H.grib2 2026-05-02 15:05 283K
20260502T12Z_MSC_RDPS_GeopotentialHeight_IsbL-0970_RLatLon0.09_PT084H.grib2 2026-05-02 15:05 287K
20260502T12Z_MSC_RDPS_GeopotentialHeight_IsbL-0985_RLatLon0.09_PT084H.grib2 2026-05-02 15:05 292K
20260502T12Z_MSC_RDPS_GeopotentialHeight_IsbL-1000_RLatLon0.09_PT084H.grib2 2026-05-02 15:05 300K
20260502T12Z_MSC_RDPS_GeopotentialHeight_IsbL-1015_RLatLon0.09_PT084H.grib2 2026-05-02 15:05 311K
20260502T12Z_MSC_RDPS_Humidex_Sfc_RLatLon0.09_PT084H.grib2 2026-05-02 15:05 2.2M
20260502T12Z_MSC_RDPS_IcePellets-Accum12h_Sfc_RLatLon0.09_PT084H.grib2 2026-05-02 15:05 21K
20260502T12Z_MSC_RDPS_IcePellets-Accum1h_Sfc_RLatLon0.09_PT084H.grib2 2026-05-02 15:05 7.5K
20260502T12Z_MSC_RDPS_IcePellets-Accum24h_Sfc_RLatLon0.09_PT084H.grib2 2026-05-02 15:05 31K
20260502T12Z_MSC_RDPS_IcePellets-Accum3h_Sfc_RLatLon0.09_PT084H.grib2 2026-05-02 15:05 10K
20260502T12Z_MSC_RDPS_IcePellets-Accum6h_Sfc_RLatLon0.09_PT084H.grib2 2026-05-02 15:05 16K
20260502T12Z_MSC_RDPS_IcePellets-Accum_Sfc_RLatLon0.09_PT084H.grib2 2026-05-02 15:05 49K
20260502T12Z_MSC_RDPS_KIndex_Sfc_RLatLon0.09_PT084H.grib2 2026-05-02 15:05 2.5M
20260502T12Z_MSC_RDPS_LatentHeatNetFlux_Sfc_RLatLon0.09_PT084H.grib2 2026-05-02 15:05 364K
20260502T12Z_MSC_RDPS_LiftedIndex-MU-VT_IsbL-0500_RLatLon0.09_PT084H.grib2 2026-05-02 15:05 2.4M
20260502T12Z_MSC_RDPS_NetLongwaveRadiationFlux-Accum_Sfc_RLatLon0.09_PT084H.grib2 2026-05-02 15:05 498K
20260502T12Z_MSC_RDPS_NetShortwaveRadiationFlux-Accum_Sfc_RLatLon0.09_PT084H.grib2 2026-05-02 15:05 522K
20260502T12Z_MSC_RDPS_PlanetaryBoundaryLayerHeight_Sfc_RLatLon0.09_PT084H.grib2 2026-05-02 15:05 1.0M
20260502T12Z_MSC_RDPS_Precip-Accum12h_Sfc_RLatLon0.09_PT084H.grib2 2026-05-02 15:05 1.8M
20260502T12Z_MSC_RDPS_Precip-Accum1h_Sfc_RLatLon0.09_PT084H.grib2 2026-05-02 15:05 1.2M
20260502T12Z_MSC_RDPS_Precip-Accum24h_Sfc_RLatLon0.09_PT084H.grib2 2026-05-02 15:05 1.8M
20260502T12Z_MSC_RDPS_Precip-Accum3h_Sfc_RLatLon0.09_PT084H.grib2 2026-05-02 15:05 1.4M
20260502T12Z_MSC_RDPS_Precip-Accum6h_Sfc_RLatLon0.09_PT084H.grib2 2026-05-02 15:05 1.5M
20260502T12Z_MSC_RDPS_Precip-Accum_Sfc_RLatLon0.09_PT084H.grib2 2026-05-02 15:05 2.3M
20260502T12Z_MSC_RDPS_PrecipRate_Sfc_RLatLon0.09_PT084H.grib2 2026-05-02 15:05 179K
20260502T12Z_MSC_RDPS_PrecipType-Instant_Sfc_RLatLon0.09_PT084H.grib2 2026-05-02 15:05 600K
20260502T12Z_MSC_RDPS_Pressure-Trend3h_Sfc_RLatLon0.09_PT084H.grib2 2026-05-02 15:05 1.2M
20260502T12Z_MSC_RDPS_Pressure_MSL_RLatLon0.09_PT084H.grib2 2026-05-02 15:05 328K
20260502T12Z_MSC_RDPS_Pressure_PVU-1.5_RLatLon0.09_PT084H.grib2 2026-05-02 15:05 2.5M
20260502T12Z_MSC_RDPS_Pressure_PVU-1_RLatLon0.09_PT084H.grib2 2026-05-02 15:05 2.4M
20260502T12Z_MSC_RDPS_Pressure_PVU-2_RLatLon0.09_PT084H.grib2 2026-05-02 15:05 2.4M
20260502T12Z_MSC_RDPS_Pressure_Sfc_RLatLon0.09_PT084H.grib2 2026-05-02 15:05 497K
20260502T12Z_MSC_RDPS_RadiativeTemp_Sfc_RLatLon0.09_PT084H.grib2 2026-05-02 15:05 309K
20260502T12Z_MSC_RDPS_Rain-Accum12h_Sfc_RLatLon0.09_PT084H.grib2 2026-05-02 15:05 1.3M
20260502T12Z_MSC_RDPS_Rain-Accum1h_Sfc_RLatLon0.09_PT084H.grib2 2026-05-02 15:05 616K
20260502T12Z_MSC_RDPS_Rain-Accum24h_Sfc_RLatLon0.09_PT084H.grib2 2026-05-02 15:05 1.5M
20260502T12Z_MSC_RDPS_Rain-Accum3h_Sfc_RLatLon0.09_PT084H.grib2 2026-05-02 15:05 748K
20260502T12Z_MSC_RDPS_Rain-Accum6h_Sfc_RLatLon0.09_PT084H.grib2 2026-05-02 15:05 1.0M
20260502T12Z_MSC_RDPS_Rain-Accum_Sfc_RLatLon0.09_PT084H.grib2 2026-05-02 15:05 1.9M
20260502T12Z_MSC_RDPS_RelativeHumidity_AGL-2m_RLatLon0.09_PT084H.grib2 2026-05-02 15:05 1.0M
20260502T12Z_MSC_RDPS_RelativeHumidity_IsbL-0010_RLatLon0.09_PT084H.grib2 2026-05-02 15:05 678K
20260502T12Z_MSC_RDPS_RelativeHumidity_IsbL-0020_RLatLon0.09_PT084H.grib2 2026-05-02 15:05 649K
20260502T12Z_MSC_RDPS_RelativeHumidity_IsbL-0030_RLatLon0.09_PT084H.grib2 2026-05-02 15:05 598K
20260502T12Z_MSC_RDPS_RelativeHumidity_IsbL-0050_RLatLon0.09_PT084H.grib2 2026-05-02 15:05 360K
20260502T12Z_MSC_RDPS_RelativeHumidity_IsbL-0100_RLatLon0.09_PT084H.grib2 2026-05-02 15:05 268K
20260502T12Z_MSC_RDPS_RelativeHumidity_IsbL-0150_RLatLon0.09_PT084H.grib2 2026-05-02 15:05 423K
20260502T12Z_MSC_RDPS_RelativeHumidity_IsbL-0175_RLatLon0.09_PT084H.grib2 2026-05-02 15:05 495K
20260502T12Z_MSC_RDPS_RelativeHumidity_IsbL-0200_RLatLon0.09_PT084H.grib2 2026-05-02 15:05 568K
20260502T12Z_MSC_RDPS_RelativeHumidity_IsbL-0225_RLatLon0.09_PT084H.grib2 2026-05-02 15:05 621K
20260502T12Z_MSC_RDPS_RelativeHumidity_IsbL-0250_RLatLon0.09_PT084H.grib2 2026-05-02 15:05 679K
20260502T12Z_MSC_RDPS_RelativeHumidity_IsbL-0275_RLatLon0.09_PT084H.grib2 2026-05-02 15:05 705K
20260502T12Z_MSC_RDPS_RelativeHumidity_IsbL-0300_RLatLon0.09_PT084H.grib2 2026-05-02 15:05 750K
20260502T12Z_MSC_RDPS_RelativeHumidity_IsbL-0350_RLatLon0.09_PT084H.grib2 2026-05-02 15:05 769K
20260502T12Z_MSC_RDPS_RelativeHumidity_IsbL-0400_RLatLon0.09_PT084H.grib2 2026-05-02 15:05 782K
20260502T12Z_MSC_RDPS_RelativeHumidity_IsbL-0450_RLatLon0.09_PT084H.grib2 2026-05-02 15:05 791K
20260502T12Z_MSC_RDPS_RelativeHumidity_IsbL-0500_RLatLon0.09_PT084H.grib2 2026-05-02 15:05 793K
20260502T12Z_MSC_RDPS_RelativeHumidity_IsbL-0550_RLatLon0.09_PT084H.grib2 2026-05-02 15:05 809K
20260502T12Z_MSC_RDPS_RelativeHumidity_IsbL-0600_RLatLon0.09_PT084H.grib2 2026-05-02 15:05 838K
20260502T12Z_MSC_RDPS_RelativeHumidity_IsbL-0650_RLatLon0.09_PT084H.grib2 2026-05-02 15:05 844K
20260502T12Z_MSC_RDPS_RelativeHumidity_IsbL-0700_RLatLon0.09_PT084H.grib2 2026-05-02 15:05 872K
20260502T12Z_MSC_RDPS_RelativeHumidity_IsbL-0750_RLatLon0.09_PT084H.grib2 2026-05-02 15:05 913K
20260502T12Z_MSC_RDPS_RelativeHumidity_IsbL-0800_RLatLon0.09_PT084H.grib2 2026-05-02 15:05 970K
20260502T12Z_MSC_RDPS_RelativeHumidity_IsbL-0850_RLatLon0.09_PT084H.grib2 2026-05-02 15:05 1.0M
20260502T12Z_MSC_RDPS_RelativeHumidity_IsbL-0875_RLatLon0.09_PT084H.grib2 2026-05-02 15:05 1.1M
20260502T12Z_MSC_RDPS_RelativeHumidity_IsbL-0900_RLatLon0.09_PT084H.grib2 2026-05-02 15:05 1.1M
20260502T12Z_MSC_RDPS_RelativeHumidity_IsbL-0925_RLatLon0.09_PT084H.grib2 2026-05-02 15:05 1.1M
20260502T12Z_MSC_RDPS_RelativeHumidity_IsbL-0950_RLatLon0.09_PT084H.grib2 2026-05-02 15:05 1.1M
20260502T12Z_MSC_RDPS_RelativeHumidity_IsbL-0970_RLatLon0.09_PT084H.grib2 2026-05-02 15:05 1.0M
20260502T12Z_MSC_RDPS_RelativeHumidity_IsbL-0985_RLatLon0.09_PT084H.grib2 2026-05-02 15:05 1.0M
20260502T12Z_MSC_RDPS_RelativeHumidity_IsbL-1000_RLatLon0.09_PT084H.grib2 2026-05-02 15:05 1.0M
20260502T12Z_MSC_RDPS_RelativeHumidity_IsbL-1015_RLatLon0.09_PT084H.grib2 2026-05-02 15:05 1.0M
20260502T12Z_MSC_RDPS_Runoff-Accum_Sfc_RLatLon0.09_PT084H.grib2 2026-05-02 15:05 72K
20260502T12Z_MSC_RDPS_SWEATIndex_Sfc_RLatLon0.09_PT084H.grib2 2026-05-02 15:05 2.4M
20260502T12Z_MSC_RDPS_SeeingIndex_EAtm_RLatLon0.09_PT084H.grib2 2026-05-02 15:05 1.0M
20260502T12Z_MSC_RDPS_SensibleHeatNetFlux_Sfc_RLatLon0.09_PT084H.grib2 2026-05-02 15:05 323K
20260502T12Z_MSC_RDPS_ShowalterIndex_IsbL-0500_RLatLon0.09_PT084H.grib2 2026-05-02 15:05 2.6M
20260502T12Z_MSC_RDPS_SkyTransparencyIndex_EAtm_RLatLon0.09_PT084H.grib2 2026-05-02 15:05 697K
20260502T12Z_MSC_RDPS_Snow-Accum12h_Sfc_RLatLon0.09_PT084H.grib2 2026-05-02 15:05 582K
20260502T12Z_MSC_RDPS_Snow-Accum1h_Sfc_RLatLon0.09_PT084H.grib2 2026-05-02 15:05 455K
20260502T12Z_MSC_RDPS_Snow-Accum24h_Sfc_RLatLon0.09_PT084H.grib2 2026-05-02 15:05 618K
20260502T12Z_MSC_RDPS_Snow-Accum3h_Sfc_RLatLon0.09_PT084H.grib2 2026-05-02 15:05 459K
20260502T12Z_MSC_RDPS_Snow-Accum6h_Sfc_RLatLon0.09_PT084H.grib2 2026-05-02 15:05 554K
20260502T12Z_MSC_RDPS_Snow-Accum_Sfc_RLatLon0.09_PT084H.grib2 2026-05-02 15:05 824K
20260502T12Z_MSC_RDPS_SnowDensity_Sfc_RLatLon0.09_PT084H.grib2 2026-05-02 15:05 177K
20260502T12Z_MSC_RDPS_SnowDepth_Sfc_RLatLon0.09_PT084H.grib2 2026-05-02 15:05 657K
20260502T12Z_MSC_RDPS_SoilTemp_DBS-0to10cm_RLatLon0.09_PT084H.grib2 2026-05-02 15:05 250K
20260502T12Z_MSC_RDPS_SoilTemp_Sfc_RLatLon0.09_PT084H.grib2 2026-05-02 15:05 281K
20260502T12Z_MSC_RDPS_SoilVolumetricIceContent_Sfc_RLatLon0.09_PT084H.grib2 2026-05-02 15:05 152K
20260502T12Z_MSC_RDPS_SoilVolumetricWaterContent_DBS-0to10cm_RLatLon0.09_PT084H.grib2 2026-05-02 15:05 279K
20260502T12Z_MSC_RDPS_SoilVolumetricWaterContent_DBS-0to1cm_RLatLon0.09_PT084H.grib2 2026-05-02 15:05 343K
20260502T12Z_MSC_RDPS_SpecificHumidity_AGL-120m_RLatLon0.09_PT084H.grib2 2026-05-02 15:05 489K
20260502T12Z_MSC_RDPS_SpecificHumidity_AGL-2m_RLatLon0.09_PT084H.grib2 2026-05-02 15:05 659K
20260502T12Z_MSC_RDPS_SpecificHumidity_AGL-40m_RLatLon0.09_PT084H.grib2 2026-05-02 15:05 495K
20260502T12Z_MSC_RDPS_SpecificHumidity_AGL-80m_RLatLon0.09_PT084H.grib2 2026-05-02 15:05 490K
20260502T12Z_MSC_RDPS_SpecificHumidity_IsbL-0001_RLatLon0.09_PT084H.grib2 2026-05-02 15:05 371K
20260502T12Z_MSC_RDPS_SpecificHumidity_IsbL-0005_RLatLon0.09_PT084H.grib2 2026-05-02 15:05 356K
20260502T12Z_MSC_RDPS_SpecificHumidity_IsbL-0010_RLatLon0.09_PT084H.grib2 2026-05-02 15:05 389K
20260502T12Z_MSC_RDPS_SpecificHumidity_IsbL-0020_RLatLon0.09_PT084H.grib2 2026-05-02 15:05 366K
20260502T12Z_MSC_RDPS_SpecificHumidity_IsbL-0030_RLatLon0.09_PT084H.grib2 2026-05-02 15:05 361K
20260502T12Z_MSC_RDPS_SpecificHumidity_IsbL-0050_RLatLon0.09_PT084H.grib2 2026-05-02 15:05 436K
20260502T12Z_MSC_RDPS_SpecificHumidity_IsbL-0100_RLatLon0.09_PT084H.grib2 2026-05-02 15:05 410K
20260502T12Z_MSC_RDPS_SpecificHumidity_IsbL-0150_RLatLon0.09_PT084H.grib2 2026-05-02 15:05 458K
20260502T12Z_MSC_RDPS_SpecificHumidity_IsbL-0175_RLatLon0.09_PT084H.grib2 2026-05-02 15:05 455K
20260502T12Z_MSC_RDPS_SpecificHumidity_IsbL-0200_RLatLon0.09_PT084H.grib2 2026-05-02 15:05 484K
20260502T12Z_MSC_RDPS_SpecificHumidity_IsbL-0225_RLatLon0.09_PT084H.grib2 2026-05-02 15:05 461K
20260502T12Z_MSC_RDPS_SpecificHumidity_IsbL-0250_RLatLon0.09_PT084H.grib2 2026-05-02 15:05 563K
20260502T12Z_MSC_RDPS_SpecificHumidity_IsbL-0275_RLatLon0.09_PT084H.grib2 2026-05-02 15:05 480K
20260502T12Z_MSC_RDPS_SpecificHumidity_IsbL-0300_RLatLon0.09_PT084H.grib2 2026-05-02 15:05 580K
20260502T12Z_MSC_RDPS_SpecificHumidity_IsbL-0350_RLatLon0.09_PT084H.grib2 2026-05-02 15:05 543K
20260502T12Z_MSC_RDPS_SpecificHumidity_IsbL-0400_RLatLon0.09_PT084H.grib2 2026-05-02 15:05 522K
20260502T12Z_MSC_RDPS_SpecificHumidity_IsbL-0450_RLatLon0.09_PT084H.grib2 2026-05-02 15:05 573K
20260502T12Z_MSC_RDPS_SpecificHumidity_IsbL-0500_RLatLon0.09_PT084H.grib2 2026-05-02 15:05 505K
20260502T12Z_MSC_RDPS_SpecificHumidity_IsbL-0550_RLatLon0.09_PT084H.grib2 2026-05-02 15:05 577K
20260502T12Z_MSC_RDPS_SpecificHumidity_IsbL-0600_RLatLon0.09_PT084H.grib2 2026-05-02 15:05 628K
20260502T12Z_MSC_RDPS_SpecificHumidity_IsbL-0650_RLatLon0.09_PT084H.grib2 2026-05-02 15:05 547K
20260502T12Z_MSC_RDPS_SpecificHumidity_IsbL-0700_RLatLon0.09_PT084H.grib2 2026-05-02 15:05 593K
20260502T12Z_MSC_RDPS_SpecificHumidity_IsbL-0750_RLatLon0.09_PT084H.grib2 2026-05-02 15:05 648K
20260502T12Z_MSC_RDPS_SpecificHumidity_IsbL-0800_RLatLon0.09_PT084H.grib2 2026-05-02 15:05 725K
20260502T12Z_MSC_RDPS_SpecificHumidity_IsbL-0850_RLatLon0.09_PT084H.grib2 2026-05-02 15:05 806K
20260502T12Z_MSC_RDPS_SpecificHumidity_IsbL-0875_RLatLon0.09_PT084H.grib2 2026-05-02 15:05 698K
20260502T12Z_MSC_RDPS_SpecificHumidity_IsbL-0900_RLatLon0.09_PT084H.grib2 2026-05-02 15:05 709K
20260502T12Z_MSC_RDPS_SpecificHumidity_IsbL-0925_RLatLon0.09_PT084H.grib2 2026-05-02 15:05 711K
20260502T12Z_MSC_RDPS_SpecificHumidity_IsbL-0950_RLatLon0.09_PT084H.grib2 2026-05-02 15:05 707K
20260502T12Z_MSC_RDPS_SpecificHumidity_IsbL-0970_RLatLon0.09_PT084H.grib2 2026-05-02 15:05 699K
20260502T12Z_MSC_RDPS_SpecificHumidity_IsbL-0985_RLatLon0.09_PT084H.grib2 2026-05-02 15:05 691K
20260502T12Z_MSC_RDPS_SpecificHumidity_IsbL-1000_RLatLon0.09_PT084H.grib2 2026-05-02 15:05 685K
20260502T12Z_MSC_RDPS_SpecificHumidity_IsbL-1015_RLatLon0.09_PT084H.grib2 2026-05-02 15:05 675K
20260502T12Z_MSC_RDPS_SpecificHumidity_Sfc_RLatLon0.09_PT084H.grib2 2026-05-02 15:05 333K
20260502T12Z_MSC_RDPS_StormRelativeHelicity_EtaL-10000_RLatLon0.09_PT084H.grib2 2026-05-02 15:05 1.1M
20260502T12Z_MSC_RDPS_StormSeverityIndex_EtaL-10000_RLatLon0.09_PT084H.grib2 2026-05-02 15:05 1.2M
20260502T12Z_MSC_RDPS_Thickness_IsbL-0850to0700_RLatLon0.09_PT084H.grib2 2026-05-02 15:05 177K
20260502T12Z_MSC_RDPS_Thickness_IsbL-1000to0500_RLatLon0.09_PT084H.grib2 2026-05-02 15:05 198K
20260502T12Z_MSC_RDPS_Thickness_IsbL-1000to0850_RLatLon0.09_PT084H.grib2 2026-05-02 15:05 183K
20260502T12Z_MSC_RDPS_TotalCloudCover_Sfc_RLatLon0.09_PT084H.grib2 2026-05-02 15:05 651K
20260502T12Z_MSC_RDPS_TotalTotalsIndex_Sfc_RLatLon0.09_PT084H.grib2 2026-05-02 15:05 2.4M
20260502T12Z_MSC_RDPS_UVIndex-ClearSky_Sfc_RLatLon0.09_PT084H.grib2 2026-05-02 15:05 192K
20260502T12Z_MSC_RDPS_UVIndex_Sfc_RLatLon0.09_PT084H.grib2 2026-05-02 15:05 402K
20260502T12Z_MSC_RDPS_UpwardLongwaveRadiationFlux_NTAtm_RLatLon0.09_PT084H.grib2 2026-05-02 15:05 491K
20260502T12Z_MSC_RDPS_UpwardShortwaveRadiationFlux_NTAtm_RLatLon0.09_PT084H.grib2 2026-05-02 15:05 342K
20260502T12Z_MSC_RDPS_VerticalVelocity_IsbL-0250_RLatLon0.09_PT084H.grib2 2026-05-02 15:05 434K
20260502T12Z_MSC_RDPS_VerticalVelocity_IsbL-0500_RLatLon0.09_PT084H.grib2 2026-05-02 15:05 546K
20260502T12Z_MSC_RDPS_VerticalVelocity_IsbL-0700_RLatLon0.09_PT084H.grib2 2026-05-02 15:05 597K
20260502T12Z_MSC_RDPS_VerticalVelocity_IsbL-0850_RLatLon0.09_PT084H.grib2 2026-05-02 15:05 700K
20260502T12Z_MSC_RDPS_VerticalWindShear_EtaL-6500_RLatLon0.09_PT084H.grib2 2026-05-02 15:05 1.2M
20260502T12Z_MSC_RDPS_WindChill_Sfc_RLatLon0.09_PT084H.grib2 2026-05-02 15:05 1.1M
20260502T12Z_MSC_RDPS_WindDir_AGL-10m_RLatLon0.09_PT084H.grib2 2026-05-02 15:05 927K
20260502T12Z_MSC_RDPS_WindDir_AGL-120m_RLatLon0.09_PT084H.grib2 2026-05-02 15:05 577K
20260502T12Z_MSC_RDPS_WindDir_AGL-40m_RLatLon0.09_PT084H.grib2 2026-05-02 15:05 601K
20260502T12Z_MSC_RDPS_WindDir_AGL-80m_RLatLon0.09_PT084H.grib2 2026-05-02 15:05 587K
20260502T12Z_MSC_RDPS_WindDir_IsbL-0001_RLatLon0.09_PT084H.grib2 2026-05-02 15:05 309K
20260502T12Z_MSC_RDPS_WindDir_IsbL-0005_RLatLon0.09_PT084H.grib2 2026-05-02 15:05 381K
20260502T12Z_MSC_RDPS_WindDir_IsbL-0010_RLatLon0.09_PT084H.grib2 2026-05-02 15:05 392K
20260502T12Z_MSC_RDPS_WindDir_IsbL-0020_RLatLon0.09_PT084H.grib2 2026-05-02 15:05 408K
20260502T12Z_MSC_RDPS_WindDir_IsbL-0030_RLatLon0.09_PT084H.grib2 2026-05-02 15:05 415K
20260502T12Z_MSC_RDPS_WindDir_IsbL-0050_RLatLon0.09_PT084H.grib2 2026-05-02 15:05 428K
20260502T12Z_MSC_RDPS_WindDir_IsbL-0100_RLatLon0.09_PT084H.grib2 2026-05-02 15:05 415K
20260502T12Z_MSC_RDPS_WindDir_IsbL-0150_RLatLon0.09_PT084H.grib2 2026-05-02 15:05 407K
20260502T12Z_MSC_RDPS_WindDir_IsbL-0175_RLatLon0.09_PT084H.grib2 2026-05-02 15:05 432K
20260502T12Z_MSC_RDPS_WindDir_IsbL-0200_RLatLon0.09_PT084H.grib2 2026-05-02 15:05 446K
20260502T12Z_MSC_RDPS_WindDir_IsbL-0225_RLatLon0.09_PT084H.grib2 2026-05-02 15:05 449K
20260502T12Z_MSC_RDPS_WindDir_IsbL-0250_RLatLon0.09_PT084H.grib2 2026-05-02 15:05 449K
20260502T12Z_MSC_RDPS_WindDir_IsbL-0275_RLatLon0.09_PT084H.grib2 2026-05-02 15:05 469K
20260502T12Z_MSC_RDPS_WindDir_IsbL-0300_RLatLon0.09_PT084H.grib2 2026-05-02 15:05 470K
20260502T12Z_MSC_RDPS_WindDir_IsbL-0350_RLatLon0.09_PT084H.grib2 2026-05-02 15:05 494K
20260502T12Z_MSC_RDPS_WindDir_IsbL-0400_RLatLon0.09_PT084H.grib2 2026-05-02 15:05 513K
20260502T12Z_MSC_RDPS_WindDir_IsbL-0450_RLatLon0.09_PT084H.grib2 2026-05-02 15:05 534K
20260502T12Z_MSC_RDPS_WindDir_IsbL-0500_RLatLon0.09_PT084H.grib2 2026-05-02 15:05 545K
20260502T12Z_MSC_RDPS_WindDir_IsbL-0550_RLatLon0.09_PT084H.grib2 2026-05-02 15:05 554K
20260502T12Z_MSC_RDPS_WindDir_IsbL-0600_RLatLon0.09_PT084H.grib2 2026-05-02 15:05 584K
20260502T12Z_MSC_RDPS_WindDir_IsbL-0650_RLatLon0.09_PT084H.grib2 2026-05-02 15:05 627K
20260502T12Z_MSC_RDPS_WindDir_IsbL-0700_RLatLon0.09_PT084H.grib2 2026-05-02 15:05 674K
20260502T12Z_MSC_RDPS_WindDir_IsbL-0750_RLatLon0.09_PT084H.grib2 2026-05-02 15:05 719K
20260502T12Z_MSC_RDPS_WindDir_IsbL-0800_RLatLon0.09_PT084H.grib2 2026-05-02 15:05 777K
20260502T12Z_MSC_RDPS_WindDir_IsbL-0850_RLatLon0.09_PT084H.grib2 2026-05-02 15:05 851K
20260502T12Z_MSC_RDPS_WindDir_IsbL-0875_RLatLon0.09_PT084H.grib2 2026-05-02 15:05 875K
20260502T12Z_MSC_RDPS_WindDir_IsbL-0900_RLatLon0.09_PT084H.grib2 2026-05-02 15:05 882K
20260502T12Z_MSC_RDPS_WindDir_IsbL-0925_RLatLon0.09_PT084H.grib2 2026-05-02 15:05 887K
20260502T12Z_MSC_RDPS_WindDir_IsbL-0950_RLatLon0.09_PT084H.grib2 2026-05-02 15:05 885K
20260502T12Z_MSC_RDPS_WindDir_IsbL-0970_RLatLon0.09_PT084H.grib2 2026-05-02 15:05 887K
20260502T12Z_MSC_RDPS_WindDir_IsbL-0985_RLatLon0.09_PT084H.grib2 2026-05-02 15:05 894K
20260502T12Z_MSC_RDPS_WindDir_IsbL-1000_RLatLon0.09_PT084H.grib2 2026-05-02 15:05 905K
20260502T12Z_MSC_RDPS_WindDir_IsbL-1015_RLatLon0.09_PT084H.grib2 2026-05-02 15:05 918K
20260502T12Z_MSC_RDPS_WindGust-Max_AGL-10m_RLatLon0.09_PT084H.grib2 2026-05-02 15:05 945K
20260502T12Z_MSC_RDPS_WindGust-Min_AGL-10m_RLatLon0.09_PT084H.grib2 2026-05-02 15:05 1.0M
20260502T12Z_MSC_RDPS_WindGust_AGL-10m_RLatLon0.09_PT084H.grib2 2026-05-02 15:05 1.0M
20260502T12Z_MSC_RDPS_WindSpeed_AGL-10m_RLatLon0.09_PT084H.grib2 2026-05-02 15:05 835K
20260502T12Z_MSC_RDPS_WindSpeed_AGL-120m_RLatLon0.09_PT084H.grib2 2026-05-02 15:05 529K
20260502T12Z_MSC_RDPS_WindSpeed_AGL-40m_RLatLon0.09_PT084H.grib2 2026-05-02 15:05 537K
20260502T12Z_MSC_RDPS_WindSpeed_AGL-80m_RLatLon0.09_PT084H.grib2 2026-05-02 15:05 531K
20260502T12Z_MSC_RDPS_WindSpeed_IsbL-0001_RLatLon0.09_PT084H.grib2 2026-05-02 15:05 337K
20260502T12Z_MSC_RDPS_WindSpeed_IsbL-0005_RLatLon0.09_PT084H.grib2 2026-05-02 15:05 349K
20260502T12Z_MSC_RDPS_WindSpeed_IsbL-0010_RLatLon0.09_PT084H.grib2 2026-05-02 15:05 401K
20260502T12Z_MSC_RDPS_WindSpeed_IsbL-0020_RLatLon0.09_PT084H.grib2 2026-05-02 15:05 389K
20260502T12Z_MSC_RDPS_WindSpeed_IsbL-0030_RLatLon0.09_PT084H.grib2 2026-05-02 15:05 319K
20260502T12Z_MSC_RDPS_WindSpeed_IsbL-0050_RLatLon0.09_PT084H.grib2 2026-05-02 15:05 351K
20260502T12Z_MSC_RDPS_WindSpeed_IsbL-0100_RLatLon0.09_PT084H.grib2 2026-05-02 15:05 476K
20260502T12Z_MSC_RDPS_WindSpeed_IsbL-0150_RLatLon0.09_PT084H.grib2 2026-05-02 15:05 384K
20260502T12Z_MSC_RDPS_WindSpeed_IsbL-0175_RLatLon0.09_PT084H.grib2 2026-05-02 15:05 432K
20260502T12Z_MSC_RDPS_WindSpeed_IsbL-0200_RLatLon0.09_PT084H.grib2 2026-05-02 15:05 445K
20260502T12Z_MSC_RDPS_WindSpeed_IsbL-0225_RLatLon0.09_PT084H.grib2 2026-05-02 15:05 446K
20260502T12Z_MSC_RDPS_WindSpeed_IsbL-0250_RLatLon0.09_PT084H.grib2 2026-05-02 15:05 447K
20260502T12Z_MSC_RDPS_WindSpeed_IsbL-0275_RLatLon0.09_PT084H.grib2 2026-05-02 15:05 464K
20260502T12Z_MSC_RDPS_WindSpeed_IsbL-0300_RLatLon0.09_PT084H.grib2 2026-05-02 15:05 463K
20260502T12Z_MSC_RDPS_WindSpeed_IsbL-0350_RLatLon0.09_PT084H.grib2 2026-05-02 15:05 476K
20260502T12Z_MSC_RDPS_WindSpeed_IsbL-0400_RLatLon0.09_PT084H.grib2 2026-05-02 15:05 459K
20260502T12Z_MSC_RDPS_WindSpeed_IsbL-0450_RLatLon0.09_PT084H.grib2 2026-05-02 15:05 462K
20260502T12Z_MSC_RDPS_WindSpeed_IsbL-0500_RLatLon0.09_PT084H.grib2 2026-05-02 15:05 462K
20260502T12Z_MSC_RDPS_WindSpeed_IsbL-0550_RLatLon0.09_PT084H.grib2 2026-05-02 15:05 462K
20260502T12Z_MSC_RDPS_WindSpeed_IsbL-0600_RLatLon0.09_PT084H.grib2 2026-05-02 15:05 589K
20260502T12Z_MSC_RDPS_WindSpeed_IsbL-0650_RLatLon0.09_PT084H.grib2 2026-05-02 15:05 609K
20260502T12Z_MSC_RDPS_WindSpeed_IsbL-0700_RLatLon0.09_PT084H.grib2 2026-05-02 15:05 676K
20260502T12Z_MSC_RDPS_WindSpeed_IsbL-0750_RLatLon0.09_PT084H.grib2 2026-05-02 15:05 706K
20260502T12Z_MSC_RDPS_WindSpeed_IsbL-0800_RLatLon0.09_PT084H.grib2 2026-05-02 15:05 752K
20260502T12Z_MSC_RDPS_WindSpeed_IsbL-0850_RLatLon0.09_PT084H.grib2 2026-05-02 15:05 816K
20260502T12Z_MSC_RDPS_WindSpeed_IsbL-0875_RLatLon0.09_PT084H.grib2 2026-05-02 15:05 841K
20260502T12Z_MSC_RDPS_WindSpeed_IsbL-0900_RLatLon0.09_PT084H.grib2 2026-05-02 15:05 856K
20260502T12Z_MSC_RDPS_WindSpeed_IsbL-0925_RLatLon0.09_PT084H.grib2 2026-05-02 15:05 867K
20260502T12Z_MSC_RDPS_WindSpeed_IsbL-0950_RLatLon0.09_PT084H.grib2 2026-05-02 15:05 866K
20260502T12Z_MSC_RDPS_WindSpeed_IsbL-0970_RLatLon0.09_PT084H.grib2 2026-05-02 15:05 864K
20260502T12Z_MSC_RDPS_WindSpeed_IsbL-0985_RLatLon0.09_PT084H.grib2 2026-05-02 15:05 858K
20260502T12Z_MSC_RDPS_WindSpeed_IsbL-1000_RLatLon0.09_PT084H.grib2 2026-05-02 15:05 849K
20260502T12Z_MSC_RDPS_WindSpeed_IsbL-1015_RLatLon0.09_PT084H.grib2 2026-05-02 15:05 835K
20260502T12Z_MSC_RDPS_WindU_AGL-10m_RLatLon0.09_PT084H.grib2 2026-05-02 15:05 429K
20260502T12Z_MSC_RDPS_WindU_AGL-120m_RLatLon0.09_PT084H.grib2 2026-05-02 15:05 412K
20260502T12Z_MSC_RDPS_WindU_AGL-40m_RLatLon0.09_PT084H.grib2 2026-05-02 15:05 532K
20260502T12Z_MSC_RDPS_WindU_AGL-80m_RLatLon0.09_PT084H.grib2 2026-05-02 15:05 529K
20260502T12Z_MSC_RDPS_WindU_IsbL-0001_RLatLon0.09_PT084H.grib2 2026-05-02 15:05 246K
20260502T12Z_MSC_RDPS_WindU_IsbL-0005_RLatLon0.09_PT084H.grib2 2026-05-02 15:05 285K
20260502T12Z_MSC_RDPS_WindU_IsbL-0010_RLatLon0.09_PT084H.grib2 2026-05-02 15:05 296K
20260502T12Z_MSC_RDPS_WindU_IsbL-0020_RLatLon0.09_PT084H.grib2 2026-05-02 15:05 312K
20260502T12Z_MSC_RDPS_WindU_IsbL-0030_RLatLon0.09_PT084H.grib2 2026-05-02 15:05 350K
20260502T12Z_MSC_RDPS_WindU_IsbL-0050_RLatLon0.09_PT084H.grib2 2026-05-02 15:05 380K
20260502T12Z_MSC_RDPS_WindU_IsbL-0100_RLatLon0.09_PT084H.grib2 2026-05-02 15:05 335K
20260502T12Z_MSC_RDPS_WindU_IsbL-0150_RLatLon0.09_PT084H.grib2 2026-05-02 15:05 400K
20260502T12Z_MSC_RDPS_WindU_IsbL-0175_RLatLon0.09_PT084H.grib2 2026-05-02 15:05 425K
20260502T12Z_MSC_RDPS_WindU_IsbL-0200_RLatLon0.09_PT084H.grib2 2026-05-02 15:05 339K
20260502T12Z_MSC_RDPS_WindU_IsbL-0225_RLatLon0.09_PT084H.grib2 2026-05-02 15:05 339K
20260502T12Z_MSC_RDPS_WindU_IsbL-0250_RLatLon0.09_PT084H.grib2 2026-05-02 15:05 339K
20260502T12Z_MSC_RDPS_WindU_IsbL-0275_RLatLon0.09_PT084H.grib2 2026-05-02 15:05 353K
20260502T12Z_MSC_RDPS_WindU_IsbL-0300_RLatLon0.09_PT084H.grib2 2026-05-02 15:05 351K
20260502T12Z_MSC_RDPS_WindU_IsbL-0350_RLatLon0.09_PT084H.grib2 2026-05-02 15:05 362K
20260502T12Z_MSC_RDPS_WindU_IsbL-0400_RLatLon0.09_PT084H.grib2 2026-05-02 15:05 465K
20260502T12Z_MSC_RDPS_WindU_IsbL-0450_RLatLon0.09_PT084H.grib2 2026-05-02 15:05 467K
20260502T12Z_MSC_RDPS_WindU_IsbL-0500_RLatLon0.09_PT084H.grib2 2026-05-02 15:05 468K
20260502T12Z_MSC_RDPS_WindU_IsbL-0550_RLatLon0.09_PT084H.grib2 2026-05-02 15:05 470K
20260502T12Z_MSC_RDPS_WindU_IsbL-0600_RLatLon0.09_PT084H.grib2 2026-05-02 15:05 480K
20260502T12Z_MSC_RDPS_WindU_IsbL-0650_RLatLon0.09_PT084H.grib2 2026-05-02 15:05 480K
20260502T12Z_MSC_RDPS_WindU_IsbL-0700_RLatLon0.09_PT084H.grib2 2026-05-02 15:05 502K
20260502T12Z_MSC_RDPS_WindU_IsbL-0750_RLatLon0.09_PT084H.grib2 2026-05-02 15:05 529K
20260502T12Z_MSC_RDPS_WindU_IsbL-0800_RLatLon0.09_PT084H.grib2 2026-05-02 15:05 568K
20260502T12Z_MSC_RDPS_WindU_IsbL-0850_RLatLon0.09_PT084H.grib2 2026-05-02 15:05 632K
20260502T12Z_MSC_RDPS_WindU_IsbL-0875_RLatLon0.09_PT084H.grib2 2026-05-02 15:05 653K
20260502T12Z_MSC_RDPS_WindU_IsbL-0900_RLatLon0.09_PT084H.grib2 2026-05-02 15:05 663K
20260502T12Z_MSC_RDPS_WindU_IsbL-0925_RLatLon0.09_PT084H.grib2 2026-05-02 15:05 668K
20260502T12Z_MSC_RDPS_WindU_IsbL-0950_RLatLon0.09_PT084H.grib2 2026-05-02 15:05 657K
20260502T12Z_MSC_RDPS_WindU_IsbL-0970_RLatLon0.09_PT084H.grib2 2026-05-02 15:05 652K
20260502T12Z_MSC_RDPS_WindU_IsbL-0985_RLatLon0.09_PT084H.grib2 2026-05-02 15:05 646K
20260502T12Z_MSC_RDPS_WindU_IsbL-1000_RLatLon0.09_PT084H.grib2 2026-05-02 15:05 778K
20260502T12Z_MSC_RDPS_WindU_IsbL-1015_RLatLon0.09_PT084H.grib2 2026-05-02 15:05 819K
20260502T12Z_MSC_RDPS_WindV_AGL-10m_RLatLon0.09_PT084H.grib2 2026-05-02 15:05 431K
20260502T12Z_MSC_RDPS_WindV_AGL-120m_RLatLon0.09_PT084H.grib2 2026-05-02 15:05 411K
20260502T12Z_MSC_RDPS_WindV_AGL-40m_RLatLon0.09_PT084H.grib2 2026-05-02 15:05 532K
20260502T12Z_MSC_RDPS_WindV_AGL-80m_RLatLon0.09_PT084H.grib2 2026-05-02 15:05 413K
20260502T12Z_MSC_RDPS_WindV_IsbL-0001_RLatLon0.09_PT084H.grib2 2026-05-02 15:05 250K
20260502T12Z_MSC_RDPS_WindV_IsbL-0005_RLatLon0.09_PT084H.grib2 2026-05-02 15:05 290K
20260502T12Z_MSC_RDPS_WindV_IsbL-0010_RLatLon0.09_PT084H.grib2 2026-05-02 15:05 301K
20260502T12Z_MSC_RDPS_WindV_IsbL-0020_RLatLon0.09_PT084H.grib2 2026-05-02 15:05 317K
20260502T12Z_MSC_RDPS_WindV_IsbL-0030_RLatLon0.09_PT084H.grib2 2026-05-02 15:05 316K
20260502T12Z_MSC_RDPS_WindV_IsbL-0050_RLatLon0.09_PT084H.grib2 2026-05-02 15:05 345K
20260502T12Z_MSC_RDPS_WindV_IsbL-0100_RLatLon0.09_PT084H.grib2 2026-05-02 15:05 428K
20260502T12Z_MSC_RDPS_WindV_IsbL-0150_RLatLon0.09_PT084H.grib2 2026-05-02 15:05 397K
20260502T12Z_MSC_RDPS_WindV_IsbL-0175_RLatLon0.09_PT084H.grib2 2026-05-02 15:05 326K
20260502T12Z_MSC_RDPS_WindV_IsbL-0200_RLatLon0.09_PT084H.grib2 2026-05-02 15:05 337K
20260502T12Z_MSC_RDPS_WindV_IsbL-0225_RLatLon0.09_PT084H.grib2 2026-05-02 15:05 338K
20260502T12Z_MSC_RDPS_WindV_IsbL-0250_RLatLon0.09_PT084H.grib2 2026-05-02 15:05 339K
20260502T12Z_MSC_RDPS_WindV_IsbL-0275_RLatLon0.09_PT084H.grib2 2026-05-02 15:05 353K
20260502T12Z_MSC_RDPS_WindV_IsbL-0300_RLatLon0.09_PT084H.grib2 2026-05-02 15:05 351K
20260502T12Z_MSC_RDPS_WindV_IsbL-0350_RLatLon0.09_PT084H.grib2 2026-05-02 15:05 359K
20260502T12Z_MSC_RDPS_WindV_IsbL-0400_RLatLon0.09_PT084H.grib2 2026-05-02 15:05 361K
20260502T12Z_MSC_RDPS_WindV_IsbL-0450_RLatLon0.09_PT084H.grib2 2026-05-02 15:05 363K
20260502T12Z_MSC_RDPS_WindV_IsbL-0500_RLatLon0.09_PT084H.grib2 2026-05-02 15:05 466K
20260502T12Z_MSC_RDPS_WindV_IsbL-0550_RLatLon0.09_PT084H.grib2 2026-05-02 15:05 467K
20260502T12Z_MSC_RDPS_WindV_IsbL-0600_RLatLon0.09_PT084H.grib2 2026-05-02 15:05 476K
20260502T12Z_MSC_RDPS_WindV_IsbL-0650_RLatLon0.09_PT084H.grib2 2026-05-02 15:05 493K
20260502T12Z_MSC_RDPS_WindV_IsbL-0700_RLatLon0.09_PT084H.grib2 2026-05-02 15:05 497K
20260502T12Z_MSC_RDPS_WindV_IsbL-0750_RLatLon0.09_PT084H.grib2 2026-05-02 15:05 523K
20260502T12Z_MSC_RDPS_WindV_IsbL-0800_RLatLon0.09_PT084H.grib2 2026-05-02 15:05 563K
20260502T12Z_MSC_RDPS_WindV_IsbL-0850_RLatLon0.09_PT084H.grib2 2026-05-02 15:05 618K
20260502T12Z_MSC_RDPS_WindV_IsbL-0875_RLatLon0.09_PT084H.grib2 2026-05-02 15:05 640K
20260502T12Z_MSC_RDPS_WindV_IsbL-0900_RLatLon0.09_PT084H.grib2 2026-05-02 15:05 659K
20260502T12Z_MSC_RDPS_WindV_IsbL-0925_RLatLon0.09_PT084H.grib2 2026-05-02 15:05 666K
20260502T12Z_MSC_RDPS_WindV_IsbL-0950_RLatLon0.09_PT084H.grib2 2026-05-02 15:05 663K
20260502T12Z_MSC_RDPS_WindV_IsbL-0970_RLatLon0.09_PT084H.grib2 2026-05-02 15:05 660K
20260502T12Z_MSC_RDPS_WindV_IsbL-0985_RLatLon0.09_PT084H.grib2 2026-05-02 15:05 650K
20260502T12Z_MSC_RDPS_WindV_IsbL-1000_RLatLon0.09_PT084H.grib2 2026-05-02 15:05 643K
20260502T12Z_MSC_RDPS_WindV_IsbL-1015_RLatLon0.09_PT084H.grib2 2026-05-02 15:05 775K